{"data":{"norad_id":58475,"intl_designator":"2023-186C","name":"STARLINK-30941","alt_names":[],"object_type":"PAYLOAD","status":"ACTIVE","operator":null,"country":"US","launch_date":"2023-12-03","launch_site_code":"AFETR","launch_vehicle":null,"mission":null,"orbit_class":"UNKNOWN","rcs_meters":null,"size_class":null,"mass_kg":null,"dimensions":null,"purposes":["comms"],"wikipedia_slug":null,"has_3d_model":false,"image_url":null,"decayed_at":null,"tle_current":{"epoch":"2026-09-20T16:02:15.960192Z","epoch_age_seconds":132258,"freshness":"FRESH","line1":"1 58475U 23186C   26263.66824028  .00000321  00000+0  21189-4 0  9994","line2":"2 58475  43.0049  46.0916 0001828 269.2825  90.7817 15.27579146155673","mean_motion":15.27579146,"eccentricity":0.0001828,"inclination_deg":43.0049,"raan_deg":46.0916,"arg_perigee_deg":269.2825,"mean_anomaly_deg":90.7817,"bstar":2.1189e-5,"rev_number":15567,"period_min":94.266801413902,"perigee_km":481.79742793826,"apogee_km":484.30587850988,"semimajor_km":6861.1886532241,"source":"CELESTRAK","updated_at":"2026-09-21T09:00:33.880358Z"}}}